HULIANWAN GAOGUI-03 (H*)

Last updated on Sat Apr 11 2026 00:02:56 GMT+0000 (Coordinated Universal Time)

1 61503U 24181A 26100.07938222 .00000000 00000+0 00000+0 0 9991 2 61503 0.0158 4.1613 0001000 115.2195 30.3884 1.00267893 6144
UTC large
Height (km)
Speed (km/s)
/
Latitude / Longitude
Inclination (degrees)
Orbital Period (minutes)
Azimuth
Elevation
Range (km)
Doppler Factor

Next 0 passes for location: London (51.5072 / 0.1276)

Sorry there are no passes over London.
HULIANWAN GAOGUI-03 (H*)